Regional Weather Roundup
Issued by NWS

Home | Current Version | Previous Version | Text Only | Print | Product List | Glossary On
Versions: 1 2 3 4 5 6 7 8 9 10 11 12 13 14 15 16 17 18 19 20 21 22 23 24 25 26 27 28 29 30 31 32 33 34 35 36 37 38 39 40 41 42 43 44 45 46 47 48 49 50
000
ASUS46 KSEW 171910
RWRWA

WASHINGTON REGIONAL WEATHER ROUNDUP
NATIONAL WEATHER SERVICE SEATTLE WA
1100 AM PST TUE JAN 17 2017

NOTE:"FAIR" INDICATES FEW OR NO CLOUDS BELOW 12,000 FEET WITH NO
SIGNIFICANT WEATHER AND/OR OBSTRUCTIONS TO VISIBILITY.

WAZ507-509-555>559-172000-
SEATTLE, TACOMA, EVERETT, AND VICINITY

CITY           SKY/WX    TMP DP  RH WIND       PRES   REMARKS
EVERETT        PTSUNNY   45  36  70 SE14      29.76S
BOEING FIELD   CLOUDY    45  37  73 SE5       29.77S
RENTON         LGT RAIN  45  32  60 CALM      29.77R
SEATAC AIRPORT CLOUDY    44  39  82 SE3       29.76S
JBLM-MCCHORD   LGT RAIN  43  39  87 CALM      29.75S
PUYALLUP         N/A     46  43  87 CALM      29.73F
BREMERTON      CLOUDY    45  37  76 SW12      29.79R
JBLM-FT LEWIS  LGT RAIN  42  41  95 CALM      29.74F
TACOMA NARROWS CLOUDY    44  34  67 SW5       29.76S
$$

WAZ001-503-506-510-514-515-172000-
NORTH INTERIOR

CITY           SKY/WX    TMP DP  RH WIND       PRES   REMARKS
BELLINGHAM     CLOUDY    54  40  59 S26G37    29.64R
FRIDAY HARBOR  PTSUNNY   51  38  60 SE17G30   29.63R
EASTSOUND      PTSUNNY   52  36  54 S16G26    29.61R
PORT ANGELES   LGT RAIN  45  42  89 CALM      29.62R
EDIZ HOOK      LGT RAIN  45  42  90 W8        29.62R
PORT TOWNSEND    N/A     55  43  62 SE14G28   29.63R
NAS WHIDBEY    LGT RAIN  53  31  42 SE33G46   29.68R
ARLINGTON      NOT AVBL
BURLINGTON     PTSUNNY   50  39  66 SE15G23   29.70S
$$

WAZ020-022-039-040-504-511-512-172000-
SOUTHWEST INTERIOR

CITY           SKY/WX    TMP DP  RH WIND       PRES   REMARKS
SHELTON        RAIN      44  41  89 NE5       29.73F FOG
OLYMPIA        RAIN      44  35  70 SW13G20   29.78R
CHEHALIS       LGT RAIN  43  32  65 S8G14     29.79S
KELSO          CLOUDY    33  23  66 SE9       29.86F
VANCOUVER      CLOUDY    29  19  66 SE7       29.91R
SCAPPOOSE, OR  CLOUDY    31  22  69 SE7       29.89S
PORTLAND, OR   PTSUNNY   28  18  66 SE16      29.91R WCI  16
$$

WAZ021-516-517-172000-
WASHINGTON COAST

CITY           SKY/WX    TMP DP  RH WIND       PRES   REMARKS
FORKS          LGT RAIN  47  46  97 S20G35    29.60F FOG
HOQUIAM        CLOUDY    50  45  83 SE16G28   29.70F
ASTORIA, OR    CLOUDY    46  39  76 VRB6      29.74F
$$

WAZ019-023-024-040-567>569-172000-
CASCADE MOUNTAINS AND COLUMBIA GORGE

CITY           SKY/WX    TMP DP  RH WIND       PRES   REMARKS
STAMPEDE PASS  NOT AVBL
TROUTDALE, OR  CLOUDY    28  16  60 E29G35    29.92R WCI  12
THE DALLES, OR CLOUDY    19  12  74 N3        30.18F
$$

WAZ026-027-041>044-520-521-172000-
EAST SLOPES

CITY           SKY/WX    TMP DP  RH WIND       PRES   REMARKS
OMAK           MOSUNNY   22  12  65 SE8       30.10S
WENATCHEE      PTSUNNY   14   9  80 E9        30.11S
ELLENSBURG     PTSUNNY   20  11  68 E5        30.04F
YAKIMA         MOSUNNY   18  11  74 CALM      30.12F HAZE
$$

WAZ028-034-035-172000-
COLUMBIA BASIN

CITY           SKY/WX    TMP DP  RH WIND       PRES   REMARKS
EPHRATA        MOSUNNY   16   6  65 CALM      30.12F
MOSES LAKE     MOSUNNY   16   8  71 CALM      30.14S HAZE
PASCO          MIX PCPN  16  12  84 CALM      30.20F
HERMISTON, OR  CLOUDY    14  10  84 CALM      30.15F FOG
$$

WAZ036>038-172000-
NORTHEAST WASHINGTON

CITY           SKY/WX    TMP DP  RH WIND       PRES   REMARKS
SPOKANE GEIGER CLOUDY    21  17  84 CALM      30.03S
SPOKANE FELTS  CLOUDY    23  19  85 CALM      30.08R FOG
FAIRCHILD AFB  CLOUDY    22  22  99 CALM      30.01F
COEURDALENE,ID FLURRIES  24  21  88 N5        30.04S
DEER PARK      CLOUDY    20  16  84 E3        30.03F
$$

WAZ029>033-172000-
SOUTHEAST WASHINGTON

CITY           SKY/WX    TMP DP  RH WIND       PRES   REMARKS
PULLMAN        PTSUNNY   29  20  69 E16G26    30.02F WCI  17
LEWISTON, ID   PTSUNNY   32  20  61 SE22G31   30.08F WCI  19
WALLA WALLA    PTSUNNY   12   7  80 NW5       30.10R
PENDLETON, OR  PTSUNNY   13   9  84 NW15      30.04F WCI  -3
$$



USA.gov is the U.S. government's official web portal to all federal, state and local government web resources and services.